User: anonymous   Login
Location: Unspecified
(0.0000°N, 0.0000°E)
Time: 19:23:33
(UTC+00:00)
Language:

LES 5 - Orbit

View from above orbital plane
View from above orbital plane
View from above satellite
View from above satellite

Ground track
Ground track

The orbit data is extracted from the following two-line orbital elements,

1 02866U 67066E   18201.53952444 -.00000086  00000-0  00000+0 0  9999
2 02866   4.3113 287.8382 0054491 327.4880  81.4666  1.09425307 99414
Epoch (UTC): 20 July 2018 12:56:54
Eccentricity: 0.0054491
inclination: 4.3113°
perigee height: 33184 km
apogee height: 33617 km
right ascension of ascending node: 287.8382°
argument of perigee: 327.4880°
revolutions per day: 1.09425307
mean anomaly at epoch: 81.4666°
orbit number at epoch: 9941

The dashed part of the orbit path shows where the satellite is in the earth's shadow,  

DLR